Regional Weather Roundup
Issued by NWS

Home | Current Version | Previous Version | Graphics & Text | Print | Product List | Glossary On
Versions: 1 2 3 4 5 6 7 8 9 10 11 12 13 14 15 16 17 18 19 20 21 22 23 24 25 26 27 28 29 30 31 32 33 34 35 36 37 38 39 40 41 42 43 44 45 46 47 48 49 50
000
ASUS43 KLSX 231507
RWRMO

WEATHER SUMMARY FOR MISSOURI
NATIONAL WEATHER SERVICE SPRINGFIELD MO
1000 AM CDT WED MAY 23 2018

NOTE: "FAIR" INDICATES FEW OR NO CLOUDS BELOW 12,000 FEET WITH NO
       SIGNIFICANT WEATHER AND/OR OBSTRUCTIONS TO VISIBILITY.
       CURRENT SKY AND/OR WEATHER CONDITIONS ARE NOT AVAILABLE FOR
       CHILLICOTHE AND FARMINGTON.

MOZ001>031-035>038-043-044-053-054-231600-
...NORTHERN AND WESTERN MISSOURI...

CITY           SKY/WX    TMP DP  RH WIND       PRES   REMARKS
KANSAS CTY INT MOSUNNY   79  69  71 SE6       30.11S
KANSAS C DTWN  SUNNY     82  67  60 SE5       30.09S
LEE`S SUMMIT   SUNNY     80  69  69 S6        30.12S
ST JOSEPH      SUNNY     80  68  66 S7        30.09F
CHILLICOTHE      N/A     80  66  62 SE8       30.12F
KIRKSVILLE     SUNNY     77  66  68 SE10      30.16S

$$
MOZ066>068-077>081-088>096-101>105-231600-
...SOUTHWEST MISSOURI...

CITY           SKY/WX    TMP DP  RH WIND       PRES   REMARKS
SPRINGFIELD    SUNNY     79  68  69 SE7       30.13S
JOPLIN         SUNNY     78  69  73 SW3       30.12S
BRANSON        PTSUNNY   77  68  73 SE7       30.16R

$$
MOZ032>034-039>042-045>050-055>058-069>072-231600-
...CENTRAL MISSOURI...

CITY           SKY/WX    TMP DP  RH WIND       PRES   REMARKS
COLUMBIA       SUNNY     78  65  63 SE10      30.15R
JEFFERSON CITY SUNNY     77  64  64 SE8       30.13S
ROLLA          SUNNY     76  64  66 SE9       30.17R
SEDALIA        SUNNY     80  72  76 SE6       30.14R
WHITEMAN AFB   MOSUNNY   79  69  70 S6        30.09R
WARRENSBURG    SUNNY     79  68  69 CALM      30.12S
OSAGE BEACH    SUNNY     79  70  74 SE6       30.15R

$$
MOZ051-052-059>065-231600-
...EAST CENTRAL MISSOURI...

CITY           SKY/WX    TMP DP  RH WIND       PRES   REMARKS
ST LOUIS INTL  MOSUNNY   77  62  59 E7        30.16F
SPIRIT OF STL  MOSUNNY   78  63  59 E8        30.15S
ST CHARLES     SUNNY     76  65  68 E8        30.15F

$$
MOZ072>076-082>087-097>100-106>115-231600-
...SOUTH CENTRAL AND SOUTHEAST MISSOURI...

CITY           SKY/WX    TMP DP  RH WIND       PRES   REMARKS
CAPE GIRARDEAU FAIR      80  66  62 N6        30.13S
FARMINGTON     CLOUDY    78  64  61 E6        30.17S
POPLAR BLUFF   FAIR      80  69  69 NE5       30.13R
WEST PLAINS    MOSUNNY   79  70  74 E6        30.17S

$$



USA.gov is the U.S. government's official web portal to all federal, state and local government web resources and services.